This demonstration page uses our WeatherBlox Daily Observations layout. Learn more.

Left ArrowRight Arrow

41.86663, -103.66717

Hourly Observations for June 4, 2021

Temp ( °F °C ) Dew Point ( °F °C ) Humidity (%) Winds ( mph kmh ) Pressure ( in mb ) Visibility ( mi km ) Precip ( " mm )
12:53 am 00:53 Clear 60 15.6 49 9.4 67 67 E 8 13 29.82 1010 10 16 N/A
1:53 am 01:53 Clear 56 13.3 48 8.9 75 75 NNE 3 6 29.83 1010 10 16 N/A
2:53 am 02:53 Clear 54 12.2 48 8.9 80 80 NNW 3 6 29.83 1010 10 16 N/A
3:53 am 03:53 Clear 53 11.7 48 8.9 83 83 N 3 6 29.84 1011 10 16 N/A
4:53 am 04:53 Clear 51 10.6 46 7.8 83 83 N N/A 29.84 1011 10 16 N/A
5:53 am 05:53 Sunny 54 12.2 48 8.9 80 80 N N/A 29.85 1011 10 16 N/A
6:53 am 06:53 Sunny 60 15.6 50 10 70 70 N N/A 29.85 1011 10 16 N/A
7:53 am 07:53 Sunny 66 18.9 51 10.6 59 59 NW 6 9 29.85 1011 10 16 N/A
8:53 am 08:53 Sunny 73 22.8 52 11.1 48 48 WNW 3 6 29.85 1011 10 16 N/A
9:53 am 09:53 Sunny 81 27.2 53 11.7 38 38 N N/A 29.83 1010 10 16 N/A
10:53 am 10:53 Sunny 86 30 51 10.6 30 30 W 5 7 29.80 1009 10 16 N/A
11:53 am 11:53 Sunny 90 32.2 46 7.8 22 22 SSE 5 7 29.79 1009 10 16 N/A
12:53 pm 12:53 Sunny 93 33.9 45 7.2 19 19 SE 8 13 29.77 1008 10 16 N/A
1:53 pm 13:53 Sunny 96 35.6 41 5 15 15 VRB 5 7 29.75 1008 10 16 N/A
2:53 pm 14:53 Sunny 96 35.6 39 3.9 14 14 W 9 15 29.74 1007 10 16 N/A
3:53 pm 15:53 Sunny 96 35.6 38 3.3 13 13 SW 6 9 29.72 1007 10 16 N/A
4:53 pm 16:53 Sunny 96 35.6 36 2.2 12 12 N N/A 29.71 1006 10 16 N/A
5:53 pm 17:53 Sunny 95 35 37 2.8 13 13 S 3 6 29.70 1006 10 16 N/A
6:53 pm 18:53 Sunny 90 32.2 46 7.8 22 22 SSE 12 19 29.69 1005 10 16 N/A
7:53 pm 19:53 Sunny 85 29.4 46 7.8 26 26 SE 8 13 29.69 1005 10 16 N/A
8:53 pm 20:53 Clear 79 26.1 50 10 36 36 SE 8 13 29.70 1006 10 16 N/A
9:53 pm 21:53 Clear 75 23.9 49 9.4 40 40 SSE 8 13 29.70 1006 10 16 N/A
10:53 pm 22:53 Clear 70 21.1 48 8.9 46 46 E 7 11 29.70 1006 10 16 N/A
11:53 pm 23:53 Clear 68 20 48 8.9 49 49 ESE 6 9 29.69 1005 10 16 N/A

Powered by AerisWeather